| time (UTC) | temp F | wind direction | speed MPH | gust MPH | rain 1hr in | rain 24hr in | rain mn in | humidity % | barometer mb |
| 20260502205846 | 53 | 143 | 0.0 | 3.0 | 0.00 | 0.00 | 0.00 | 80 | 1011.0 |
| 20260502204846 | 53 | 167 | 0.0 | 2.0 | 0.00 | 0.00 | 0.00 | 79 | 1011.0 |
| 20260502203845 | 53 | 194 | 1.0 | 4.0 | 0.00 | 0.00 | 0.00 | 79 | 1011.1 |
| 20260502202845 | 53 | 122 | 0.0 | 4.0 | 0.00 | 0.00 | 0.00 | 79 | 1011.2 |
| 20260502201845 | 54 | 122 | 1.0 | 3.0 | 0.00 | 0.00 | 0.00 | 78 | 1011.3 |
| 20260502200847 | 54 | 155 | 1.0 | 3.0 | 0.00 | 0.00 | 0.00 | 76 | 1011.3 |
| 20260502200346 | 54 | 138 | 1.0 | 6.0 | 0.00 | 0.00 | 0.00 | 76 | 1011.5 |
| 20260502194840 | 55 | 148 | 1.0 | 4.0 | 0.00 | 0.00 | 0.00 | 75 | 1011.5 |
| 20260502193340 | 55 | 162 | 1.0 | 3.0 | 0.00 | 0.00 | 0.00 | 74 | 1011.6 |
| 20260502191837 | 55 | 208 | 1.0 | 4.0 | 0.00 | 0.00 | 0.00 | 75 | 1011.8 |
| 20260502190837 | 56 | 160 | 1.0 | 3.0 | 0.00 | 0.00 | 0.00 | 75 | 1011.7 |
| 20260502185838 | 56 | 145 | 1.0 | 3.0 | 0.00 | 0.00 | 0.00 | 74 | 1011.8 |
| 20260502184839 | 57 | 162 | 1.0 | 4.0 | 0.00 | 0.00 | 0.00 | 72 | 1011.9 |
| 20260502183837 | 58 | 134 | 1.0 | 4.0 | 0.00 | 0.00 | 0.00 | 69 | 1012.2 |
| 20260502182843 | 58 | 200 | 1.0 | 6.0 | 0.00 | 0.00 | 0.00 | 63 | 1012.2 |
| 20260502182837 | 57 | 191 | 1.0 | 5.0 | 0.00 | 0.00 | 0.00 | 68 | 1012.0 |
| 20260502180831 | 58 | 235 | 1.0 | 4.0 | 0.00 | 0.00 | 0.00 | 60 | 1012.2 |
| 20260502170332 | 57 | 123 | 1.0 | 4.0 | 0.00 | 0.00 | 0.00 | 69 | 1011.9 |
| 20260502163827 | 57 | 174 | 1.0 | 2.0 | 0.00 | 0.00 | 0.00 | 70 | 1012.1 |
| 20260502162833 | 57 | 117 | 1.0 | 3.0 | 0.00 | 0.00 | 0.00 | 71 | 1012.2 |
| 20260502162827 | 57 | 203 | 1.0 | 6.0 | 0.00 | 0.00 | 0.00 | 71 | 1012.3 |
| 20260502160827 | 57 | 131 | 1.0 | 3.0 | 0.00 | 0.00 | 0.00 | 72 | 1012.4 |
| 20260502151819 | 57 | 195 | 1.0 | 4.0 | 0.00 | 0.00 | 0.00 | 72 | 1012.8 |
| 20260502151321 | 58 | 186 | 1.0 | 5.0 | 0.00 | 0.00 | 0.00 | 71 | 1012.9 |
| 20260502123813 | 57 | 205 | 1.0 | 4.0 | 0.00 | 0.00 | 0.00 | 73 | 1013.1 |
| 20260502122814 | 56 | 195 | 0.0 | 3.0 | 0.00 | 0.00 | 0.00 | 74 | 1013.1 |
| 20260502121807 | 55 | 155 | 0.0 | 2.0 | 0.00 | 0.00 | 0.00 | 76 | 1012.9 |
| 20260502120808 | 54 | 170 | 0.0 | 2.0 | 0.00 | 0.00 | 0.00 | 78 | 1013.0 |
| 20260502115809 | 53 | 205 | 0.0 | 2.0 | 0.00 | 0.00 | 0.00 | 79 | 1012.8 |
| 20260502114810 | 53 | 235 | 0.0 | 1.0 | 0.00 | 0.00 | 0.00 | 79 | 1012.7 |
| 20260502113809 | 52 | 201 | 0.0 | 2.0 | 0.00 | 0.00 | 0.00 | 81 | 1012.7 |
| 20260502112807 | 51 | 210 | 0.0 | 2.0 | 0.00 | 0.00 | 0.00 | 81 | 1012.9 |
| 20260502111809 | 50 | 183 | 0.0 | 1.0 | 0.00 | 0.00 | 0.00 | 81 | 1012.9 |
| 20260502110809 | 50 | 218 | 0.0 | 1.0 | 0.00 | 0.00 | 0.00 | 81 | 1012.9 |
| 20260502105808 | 49 | 198 | 0.0 | 2.0 | 0.00 | 0.00 | 0.00 | 81 | 1012.8 |
| 20260502104807 | 48 | 207 | 0.0 | 2.0 | 0.00 | 0.00 | 0.00 | 80 | 1012.6 |
| 20260502103805 | 47 | 198 | 0.0 | 1.0 | 0.00 | 0.00 | 0.00 | 79 | 1012.5 |
| 20260502102806 | 45 | 208 | 0.0 | 1.0 | 0.00 | 0.00 | 0.00 | 75 | 1012.6 |
| 20260502101805 | 44 | 204 | 0.0 | 1.0 | 0.00 | 0.00 | 0.00 | 73 | 1012.8 |
| 20260502100807 | 43 | 232 | 0.0 | 1.0 | 0.00 | 0.00 | 0.00 | 72 | 1012.7 |
| 20260502090804 | 40 | 232 | 0.0 | 0.0 | 0.00 | 0.00 | 0.00 | 74 | 1012.4 |
| 20260502071258 | 40 | 232 | 0.0 | 0.0 | 0.00 | 0.00 | 0.00 | 77 | 1012.4 |
| 20260502070259 | 41 | 232 | 0.0 | 0.0 | 0.00 | 0.00 | 0.00 | 78 | 1012.4 |
| 20260502064758 | 41 | 231 | 0.0 | 0.0 | 0.00 | 0.00 | 0.00 | 77 | 1012.4 |
| 20260502063758 | 41 | 232 | 0.0 | 0.0 | 0.00 | 0.00 | 0.00 | 77 | 1012.6 |
| 20260502062752 | 41 | 232 | 0.0 | 0.0 | 0.00 | 0.00 | 0.00 | 77 | 1012.5 |
| 20260502061751 | 41 | 231 | 0.0 | 0.0 | 0.00 | 0.00 | 0.00 | 77 | 1012.5 |
| 20260502055752 | 42 | 231 | 0.0 | 0.0 | 0.00 | 0.00 | 0.00 | 79 | 1012.6 |
| 20260502054752 | 42 | 232 | 0.0 | 0.0 | 0.00 | 0.00 | 0.00 | 80 | 1012.6 |
| 20260502053752 | 42 | 232 | 0.0 | 0.0 | 0.00 | 0.00 | 0.00 | 80 | 1012.6 |
| 20260502052751 | 43 | 232 | 0.0 | 0.0 | 0.00 | 0.00 | 0.00 | 80 | 1012.6 |
| 20260502052254 | 43 | 231 | 0.0 | 0.0 | 0.00 | 0.00 | 0.00 | 80 | 1012.6 |
| 20260502050750 | 43 | 232 | 0.0 | 0.0 | 0.00 | 0.00 | 0.00 | 81 | 1012.7 |
| 20260502045747 | 43 | 232 | 0.0 | 0.0 | 0.00 | 0.00 | 0.00 | 82 | 1012.7 |
| 20260502044749 | 44 | 232 | 0.0 | 0.0 | 0.00 | 0.00 | 0.00 | 82 | 1012.7 |
| 20260502043745 | 44 | 232 | 0.0 | 0.0 | 0.00 | 0.00 | 0.00 | 81 | 1012.7 |
| 20260502043247 | 44 | 232 | 0.0 | 0.0 | 0.00 | 0.00 | 0.00 | 81 | 1012.6 |
| 20260502041746 | 44 | 232 | 0.0 | 0.0 | 0.00 | 0.00 | 0.00 | 81 | 1012.5 |
| 20260502040745 | 45 | 231 | 0.0 | 0.0 | 0.00 | 0.00 | 0.00 | 81 | 1012.5 |
| 20260502035743 | 45 | 232 | 0.0 | 0.0 | 0.00 | 0.00 | 0.00 | 80 | 1012.5 |
| 20260502034743 | 46 | 232 | 0.0 | 0.0 | 0.00 | 0.00 | 0.00 | 80 | 1012.6 |
| 20260502033743 | 46 | 232 | 0.0 | 0.0 | 0.00 | 0.00 | 0.00 | 80 | 1012.6 |
| 20260502033254 | 46 | 232 | 0.0 | 0.0 | 0.00 | 0.00 | 0.00 | 80 | 1012.6 |
| 20260502031738 | 46 | 232 | 0.0 | 0.0 | 0.00 | 0.00 | 0.00 | 79 | 1012.5 |
| 20260502030743 | 47 | 232 | 0.0 | 0.0 | 0.00 | 0.00 | 0.00 | 78 | 1012.2 |
| 20260502030737 | 46 | 232 | 0.0 | 0.0 | 0.00 | 0.00 | 0.00 | 79 | 1012.3 |
| 20260502024737 | 47 | 232 | 0.0 | 0.0 | 0.00 | 0.00 | 0.00 | 78 | 1012.1 |
| 20260502023737 | 47 | 232 | 0.0 | 0.0 | 0.00 | 0.00 | 0.00 | 77 | 1012.1 |
| 20260502022738 | 47 | 232 | 0.0 | 0.0 | 0.00 | 0.00 | 0.00 | 76 | 1012.1 |
| 20260502021738 | 47 | 232 | 0.0 | 0.0 | 0.00 | 0.00 | 0.00 | 76 | 1012.1 |
| 20260502020738 | 48 | 232 | 0.0 | 0.0 | 0.00 | 0.00 | 0.00 | 74 | 1012.1 |
| 20260502015733 | 49 | 232 | 0.0 | 0.0 | 0.00 | 0.00 | 0.00 | 74 | 1012.1 |
| 20260502013731 | 49 | 232 | 0.0 | 1.0 | 0.00 | 0.00 | 0.00 | 74 | 1012.1 |
| 20260502012731 | 50 | 232 | 0.0 | 0.0 | 0.00 | 0.00 | 0.00 | 73 | 1011.9 |
| 20260502011733 | 50 | 232 | 0.0 | 0.0 | 0.00 | 0.00 | 0.00 | 73 | 1011.8 |
| 20260502010731 | 51 | 232 | 0.0 | 0.0 | 0.00 | 0.00 | 0.00 | 71 | 1011.7 |
| 20260502005731 | 51 | 232 | 0.0 | 0.0 | 0.00 | 0.00 | 0.00 | 70 | 1011.4 |
| 20260502004732 | 52 | 232 | 0.0 | 0.0 | 0.00 | 0.00 | 0.00 | 68 | 1011.3 |
| 20260502003731 | 52 | 232 | 0.0 | 1.0 | 0.00 | 0.00 | 0.00 | 67 | 1011.2 |
| 20260502002727 | 53 | 229 | 0.0 | 1.0 | 0.00 | 0.00 | 0.00 | 66 | 1011.1 |
| 20260502000726 | 54 | 239 | 0.0 | 1.0 | 0.00 | 0.00 | 0.00 | 63 | 1010.7 |
| 20260501235725 | 55 | 239 | 0.0 | 1.0 | 0.00 | 0.00 | 0.00 | 61 | 1010.6 |
| 20260501234727 | 56 | 235 | 0.0 | 2.0 | 0.00 | 0.00 | 0.00 | 60 | 1010.3 |
| 20260501233726 | 56 | 229 | 0.0 | 1.0 | 0.00 | 0.00 | 0.00 | 59 | 1010.2 |
| 20260501232727 | 57 | 238 | 0.0 | 1.0 | 0.00 | 0.00 | 0.00 | 59 | 1010.1 |
| 20260501231726 | 57 | 210 | 0.0 | 1.0 | 0.00 | 0.00 | 0.00 | 57 | 1009.9 |
| 20260501230725 | 58 | 225 | 0.0 | 2.0 | 0.00 | 0.00 | 0.00 | 57 | 1009.8 |
| 20260501225721 | 58 | 191 | 0.0 | 2.0 | 0.00 | 0.00 | 0.00 | 56 | 1009.7 |
| 20260501224802 | 59 | 225 | 0.0 | 5.0 | 0.00 | 0.00 | 0.00 | 56 | 1009.5 |
| 20260501223721 | 60 | 195 | 0.0 | 2.0 | 0.00 | 0.00 | 0.00 | 54 | 1009.4 |
| 20260501222722 | 61 | 194 | 0.0 | 4.0 | 0.00 | 0.00 | 0.00 | 50 | 1009.3 |
| 20260501221719 | 63 | 212 | 0.0 | 3.0 | 0.00 | 0.00 | 0.00 | 47 | 1009.2 |
| 20260501220719 | 65 | 245 | 1.0 | 7.0 | 0.00 | 0.00 | 0.00 | 43 | 1009.1 |
| 20260501215722 | 65 | 65 | 2.0 | 9.0 | 0.00 | 0.00 | 0.00 | 32 | 1009.1 |
| 20260501214722 | 66 | 281 | 1.0 | 5.0 | 0.00 | 0.00 | 0.00 | 32 | 1009.0 |
| 20260501213720 | 65 | 225 | 1.0 | 6.0 | 0.00 | 0.00 | 0.00 | 31 | 1008.9 |
| 20260501212716 | 66 | 85 | 1.0 | 5.0 | 0.00 | 0.00 | 0.00 | 33 | 1009.0 |
| 20260501211716 | 66 | 270 | 1.0 | 8.0 | 0.00 | 0.00 | 0.00 | 33 | 1008.9 |
| 20260501210715 | 65 | 145 | 1.0 | 6.0 | 0.00 | 0.00 | 0.00 | 36 | 1008.9 |